Weather Roundup
Issued by NWS

Home | Current Version | Previous Version | Graphics & Text | Print | Product List | Glossary Off
Versions: 1 2 3 4 5 6 7 8 9 10 11 12 13 14 15 16 17 18 19 20 21 22 23 24 25 26 27 28 29 30 31 32 33 34 35 36 37 38 39 40 41 42 43 44 45 46 47 48 49 50

000
NZUS93 KARX 200159
HRRWXR

CURRENT HOURLY OBSERVATIONS ACROSS
MUCH OF THE UPPER MISSISSIPPI VALLEY
NATIONAL WEATHER SERVICE LA CROSSE WI
900 PM CDT SAT APR 19 2014


...SOUTHEAST MINNESOTA...


CITY           SKY/WX    TMP DP  RH WIND       PRES   REMARKS
ROCHESTER      CLOUDY    63  46  54 S14       30.03R
ROCHESTER/MAYO CLOUDY    66  41  40 SE13G21   30.02S
WINONA           N/A    N/A N/A N/A MISG        N/A
AUSTIN         CLOUDY    64  43  45 S7        30.02R
ALBERT LEA     CLOUDY    68  45  42 S10       30.01R
DODGE CENTER   CLOUDY    64  45  48 CALM      30.02R
PRESTON        CLOUDY    64  45  49 S13G18    30.05S
OWATONNA       LGT RAIN  59  52  77 E3        30.01S
FARIBAULT      CLOUDY    59  54  82 SE6       30.01S HAZE
$$

...ELSEWHERE IN MINNESOTA...


CITY           SKY/WX    TMP DP  RH WIND       PRES   REMARKS
MINNEAPOLIS    CLOUDY    59  53  80 SW3       30.00R
INTNL FALLS    CLEAR     51  35  54 W6        29.91R
DULUTH         CLEAR     34  29  82 SE8       30.00R WCI  27
RED WING       CLOUDY    57  52  82 E6        30.01S
REDWOOD FALLS  CLOUDY    59  43  55 CALM      30.00R
MANKATO        CLOUDY    57  52  82 N6        30.00R
WORTHINGTON    CLOUDY    59  43  55 E5        30.03R
FAIRMONT       CLOUDY    61  48  63 NW3       30.03R
$$

...SOUTHWEST WISCONSIN...


CITY           SKY/WX    TMP DP  RH WIND       PRES   REMARKS
LA CROSSE      MOCLDY    64  40  41 S9        30.06R
PRAIRIE DU CHI CLOUDY    64  37  36 SE7       30.09S
BOSCOBEL       CLOUDY    65  35  33 VRB3      30.12R
LONE ROCK      NOT AVBL
PLATTEVILLE    CLOUDY    58  37  45 SE7       30.15R
FORT MC COY    NOT AVBL
VIROQUA        MOCLDY    60  37  41 SE9       30.11R
WIS DELLS      MOCLDY    59  34  39 S12       30.14S
$$

...ELSEWHERE IN WISCONSIN...


CITY           SKY/WX    TMP DP  RH WIND       PRES   REMARKS
MILWAUKEE      CLOUDY    46  34  62 SE6       30.25R
MADISON        CLOUDY    58  36  43 SE6       30.17S
GREEN BAY      MOCLDY    46  37  71 S8        30.20R
EAU CLAIRE     NOT AVBL
BLACK RVR FLS  FAIR      63  35  34 S6        30.06S
MEDFORD        CLOUDY    56  39  54 E6        30.09S
WAUSAU         CLOUDY    56  38  50 E8        30.11R
WIS RAPIDS     CLOUDY    60  36  40 S7        30.13R
MARSHFIELD     CLOUDY    59  40  49 S12       30.09S
RICE LAKE      CLOUDY    50  44  80 SE9       30.04S
$$

...NORTHEAST IOWA...


CITY           SKY/WX    TMP DP  RH WIND       PRES   REMARKS
WATERLOO       MOCLDY    66  44  45 S12       30.07R
DUBUQUE        CLOUDY    57  38  48 S12       30.14R
DECORAH        CLOUDY    64  43  45 S10       30.07R
MASON CITY     CLOUDY    63  46  54 S8        30.04R
CHARLES CITY   CLOUDY    66  45  45 S12       30.06R
OELWEIN        PTCLDY   N/A N/A N/A S10       30.09R
$$

...ELSEWHERE IN IOWA...


CITY           SKY/WX    TMP DP  RH WIND       PRES   REMARKS
DES MOINES     PTCLDY    67  43  41 S9        30.06R
IOWA CITY      MOCLDY    62  42  47 SE9       30.13R
FORT DODGE     CLOUDY    70  43  37 S12G18    30.02S
MARSHALLTOWN   CLOUDY    66  45  46 S10       30.06R
CEDAR RAPIDS   MOCLDY    63  41  44 S9        30.10R
$$

...NORTHERN ILLINOIS...


CITY           SKY/WX    TMP DP  RH WIND       PRES   REMARKS
CHICAGO-OHARE  CLOUDY    54  35  48 E6        30.23R
DUPAGE         PTCLDY    58  36  43 E6        30.22R
CHICAGO-MIDWAY MOCLDY    53  38  56 E8        30.24R
MOLINE         PTCLDY    57  35  43 SE5       30.14R
ROCKFORD       MOCLDY    60  36  40 SE13      30.19S
STERLING       MOCLDY    61  34  36 SE7       30.16S
PEORIA         PTCLDY    65  36  34 SE7       30.19R
$$

NOTE: "FAIR" INDICATES FEW OR NO CLOUDS BELOW 12,000 FEET WITH NO
SIGNIFICANT WEATHER AND/OR OBSTRUCTIONS TO VISIBILITY. WIND
SPEEDS ARE IN MILES-PER-HOUR.



USA.gov is the U.S. government's official web portal to all federal, state and local government web resources and services.